PST,Max TemperatureF,Mean TemperatureF,Min TemperatureF,Max Dew PointF,MeanDew PointF,Min DewpointF,Max Humidity, Mean Humidity, Min Humidity, Max Sea Level PressureIn, Mean Sea Level PressureIn, Min Sea Level PressureIn, Max VisibilityMiles, Mean VisibilityMiles, Min VisibilityMiles, Max Wind SpeedMPH, Mean Wind SpeedMPH, Max Gust SpeedMPH,PrecipitationIn, CloudCover, Events, WindDirDegrees
2012-1-1,57,50,43,54,49,43,100,96,83,30.19,30.14,30.09,,,,13,4,,0.00,3,,205
2012-1-2,66,56,45,55,50,45,100,90,59,30.27,30.19,30.14,,,,13,6,,0.00,1,,321
2012-1-3,68,56,45,56,45,32,96,71,34,30.22,30.19,30.16,7,7,7,8,4,,0.00,4,,334
2012-1-4,84,64,43,52,40,25,89,55,11,30.26,30.20,30.17,7,7,7,12,6,,0.00,2,,347
2012-1-5,71,60,46,54,43,30,89,61,30,30.17,30.09,30.00,7,7,7,10,5,,0.00,1,,318
2012-1-6,63,52,41,53,45,35,100,82,55,30.05,29.99,29.96,7,7,6,15,4,,0.00,1,,345
2012-1-7,64,48,37,52,44,15,100,87,15,30.06,30.01,29.98,5,4,3,10,2,,0.00,2,,18
2012-1-8,73,62,48,38,23,13,51,26,12,30.19,30.13,30.07,7,7,7,26,16,39,0.00,2,,28
2012-1-9,78,63,48,51,33,17,77,45,14,30.20,30.17,30.12,7,7,7,16,8,24,0.00,1,,29
2012-1-10,63,52,42,53,42,33,97,74,38,30.19,30.13,30.07,7,7,7,8,4,,0.00,3,,356
2012-1-11,60,50,39,53,45,36,93,81,49,30.07,30.03,29.99,7,7,7,8,4,,0.00,5,,334
2012-1-12,73,60,48,49,33,7,92,43,11,30.07,30.02,29.99,7,7,7,18,8,25,0.00,1,,21
2012-1-13,77,65,53,46,10,0,77,16,6,30.18,30.12,30.08,7,7,7,18,13,24,0.00,1,,68
2012-1-14,63,54,43,48,30,6,71,44,11,30.19,30.13,30.10,7,7,7,26,5,44,0.00,4,,67
2012-1-15,63,54,45,52,42,27,89,67,41,30.15,30.10,30.06,7,7,7,16,7,26,0.00,5,,171
2012-1-16,55,50,42,52,44,37,100,77,57,30.23,30.13,30.08,7,7,7,14,4,21,0.00,4,,278
2012-1-17,57,49,41,45,40,34,93,76,53,30.33,30.28,30.24,7,7,7,9,4,17,0.00,3,,358
2012-1-18,59,48,37,46,40,34,93,76,58,30.34,30.26,30.18,7,7,7,12,5,18,0.00,1,,354
2012-1-19,59,48,37,50,43,35,96,83,62,30.17,30.10,30.05,7,7,7,14,5,,0.00,3,,315
2012-1-20,59,50,41,54,49,41,100,92,69,30.15,30.08,30.06,7,6,2,13,5,18,0.03,6,Rain,169
2012-1-21,61,54,46,57,51,41,100,89,53,30.11,30.02,29.97,7,5,0,29,12,43,0.15,6,Rain,239
2012-1-22,59,52,44,50,45,39,93,81,64,30.22,30.15,30.12,7,7,7,10,5,,0.00,5,,16
2012-1-23,57,52,46,54,50,46,100,92,82,30.11,30.00,29.90,7,4,1,12,6,74,0.56,7,Rain,95
2012-1-24,66,55,44,48,45,41,100,75,45,30.25,30.16,30.06,7,7,7,16,7,30,0.00,4,,358
2012-1-25,80,64,48,54,44,39,81,58,25,30.24,30.17,30.12,7,7,7,13,7,18,0.00,1,,337
2012-1-26,70,58,46,57,50,42,89,76,54,30.13,30.07,30.00,7,7,7,10,5,,0.00,1,,315
2012-1-27,75,62,48,50,37,19,93,47,17,30.12,30.04,29.99,7,7,7,29,12,37,0.00,2,,36
2012-1-28,73,68,62,18,12,1,16,12,8,30.23,30.18,30.11,7,7,7,32,23,50,0.00,0,,53
2012-1-29,75,62,48,48,25,2,74,33,8,30.22,30.15,30.07,7,7,7,22,13,31,0.00,1,,25
2012-1-30,61,49,37,53,43,30,100,78,41,30.05,30.01,29.97,7,7,7,18,6,24,0.00,4,,106
2012-1-31,59,50,41,51,46,41,100,89,64,30.15,30.07,30.01,7,7,5,13,3,,0.00,4,,28